Content
SEND FEEDBACK

Daily
Averages
Monthly
Summary
United States of America

ST. LOUIS, MISSOURI


Home > North America > United States > Missouri
Elevation: 163 meters     Latitude: 38 45N     Longitude: 090 22W

WEATHER
 
SELECT A DAY
Number of Records: 196,446;   Date Range: 1/1/95 - 8/12/14
 
SHARE

PRINT THIS DATA

[ ← Previous Day ]
WEATHER ALMANAC - 19 MAY, 2013
[ Next Day → ]
[ °F ]   °C
Weather ElementAverageHighLow
Temperature26.7 °C32.2 °C (3:54 pm)19.4 °C (5:54 am)
Dewpoint19.3 °C22 °C (1:54 pm)16.1 °C (7:54 pm)
Humidity65.3 %90 % (5:54 am)46 % (7:54 pm)
Barometer1008.5 hPa1011.9 hPa (9:54 am)1004.4 hPa (6:54 pm)
Wind Speed11.1 km/h22.2 km/h (2:54 pm)
Wind Gust40.7 km/h (4:54 pm)
Weather ElementAverage
Visibility14.8 km
Wind DirectionSE (135.7 °)

Weather ElementTotal
Precipitation---
Cooling Degree Days7.5 (Base 18.3)
Growing Degree Days15.8 (Base 10)
Averaged from 23 records on 19 May, 2013
WEATHER CONDITIONS BREAKOUT
WIND DIRECTION BREAKOUT
WEATHER BY HOUR - 19 MAY, 2013
[ °F ]   °C
Local TimeTemperatureDewpointHumidityBarometerVisibilityWind DirectionWind SpeedGust SpeedPrecipitationEventsConditions
1:54 AM22.8 °C18.3 °C76 %1011.2 hPa16.1 kmCalmOvercast
2:54 AM21.7 °C17.8 °C78 %1010.5 hPa16.1 kmESE (120°)5.6 km/hPartly Cloudy
3:54 AM22.2 °C18.3 °C78 %1011.5 hPa16.1 kmCalmMostly Cloudy
4:54 AM20.6 °C18.3 °C87 %1010.5 hPa14.5 kmENE (60°)5.6 km/hPartly Cloudy
5:54 AM19.4 °C17.8 °C90 %1010.5 hPa8 kmCalmScattered Clouds
6:54 AM22 °C19 °C83 %1010.5 hPa12.9 kmESE (110°)7.4 km/hClear
7:54 AM22.8 °C19.4 °C81 %1010.2 hPa12.9 kmVariable5.6 km/hOvercast
8:54 AM24.4 °C20.6 °C79 %1010.8 hPa12.9 kmSSW (200°)9.3 km/hOvercast
9:54 AM25 °C21.1 °C79 %1011.9 hPa12.9 kmWSW (240°)14.8 km/hOvercast
10:54 AM27.8 °C21.7 °C69 %1010.8 hPa12.9 kmWest (260°)5.6 km/hClear
11:54 AM29.4 °C21.7 °C63 %1009.5 hPa16.1 kmSE (140°)7.4 km/hClear
12:54 PM30.6 °C21.7 °C59 %1008.5 hPa16.1 kmSSE (150°)16.7 km/hMostly Cloudy
1:54 PM32 °C22 °C55 %1008.5 hPa14.5 kmSSE (150°)13 km/hPartly Cloudy
2:54 PM32 °C21 °C52 %1007.5 hPa14.5 kmSouth (180°)22.2 km/h31.5 km/hScattered Clouds
3:54 PM32.2 °C21.1 °C52 %1005.8 hPa14.5 kmSSE (160°)16.7 km/h37 km/hScattered Clouds
4:54 PM32.2 °C20 °C48 %1005.4 hPa16.1 kmSSE (150°)18.5 km/h40.7 km/hPartly Cloudy
5:54 PM31.7 °C19.4 °C48 %1005.1 hPa16.1 kmSSE (150°)20.4 km/h33.3 km/hScattered Clouds
6:54 PM30 °C18.9 °C51 %1004.4 hPa16.1 kmSSE (160°)20.4 km/h33.3 km/hClear
7:54 PM28.9 °C16.1 °C46 %1005.1 hPa16.1 kmSSE (160°)16.7 km/h29.6 km/hClear
8:54 PM27.8 °C16.7 °C51 %1005.8 hPa16.1 kmSouth (170°)11.1 km/hScattered Clouds
9:54 PM26.7 °C17.2 °C56 %1007.1 hPa16.1 kmSouth (180°)9.3 km/hClear
10:54 PM26.7 °C17.8 °C58 %1008.1 hPa16.1 kmSSW (200°)14.8 km/h31.5 km/hClear
11:54 PM26.1 °C18.9 °C64 %1007.1 hPa16.1 kmSouth (180°)13 km/hClear
Hourly data recorded from KSUS, located 0 kilometers away from St. Louis, Missouri







STORIES FROM OUR PARTNERS